Weather in Guasave

Mexico     25°34′13″N   108°27′39″W
temp.,
°C
wind,
m/s
gust,
m/s
humid.,
%
clouds,
%
prec.,
mm/h
press.,
hPa
HPBL,
m
7 may, fri
fri700:00+23wnw22370 0.0 101312
03:00+21wnw22435 0.0 101220
06:00+20nw2249100 0.0 101312
09:00+26nw222951 0.0 1014344
12:00+34wsw321497 0.0 10121134
15:00+34sw6516100 0.0 10101131
18:00+32wsw66195 0.0 1009804
21:00+26w463381 0.0 1011121
8 may, sat
sat800:00+24w223596 0.0 101112
03:00+23w113959 0.0 101011
06:00+22se224393 0.0 101112
09:00+27sse334143 0.0 1013628
12:00+32s542612 0.0 10131304
15:00+33ssw65230 0.0 10111279
18:00+31sw54300 0.0 1010782
21:00+25s23620 0.0 101150
9 may, sun
sun900:00+23sse33720 0.0 101254
03:00+22sse33804 0.0 101261
06:00+21ese33815 0.0 101260
09:00+26se3451100 0.0 1013427
12:00+32s5427100 0.0 10121252
15:00+33ssw6527100 0.0 10101179
18:00+29sw4437100 0.0 1009623
21:00+24ssw226599 0.0 101129
10 may, mon
mon1000:00+23se22675 0.0 101127
03:00+22sse227337 0.0 101017
06:00+21se337878 0.0 101134
09:00+26se344881 0.0 1012512
12:00+33s55250 0.0 10111292
15:00+34ssw65230 0.0 10091212
18:00+31wsw54281 0.0 1009730
21:00+25sw225194 0.0 101018
11 may, tue
tue1100:00+24se11554 0.0 101111
03:00+23sse116241 0.0 101011
06:00+22e1166100 0.0 101111
09:00+27e114475 0.0 1012364
12:00+34ssw32205 0.0 10111353
15:00+35sw742061 0.0 10091358
18:00+32wsw661848 0.0 1009789
21:00+27w3429100 0.0 101167